"Date/Time","Date/Time","No.1","No.2"
"Date/Time","Date/Time","RTR507B _showa Ch.1","RTR507B _showa Ch.2"
"","","��C","%"
"2022-12-31 23:50:00","44926.9930555556","0.5","82.1"
"2022-12-31 23:40:00","44926.9861111111","0.5","82.2"
"2022-12-31 23:30:00","44926.9791666667","0.5","82.2"
"2022-12-31 23:20:00","44926.9722222222","0.5","82.0"
"2022-12-31 23:10:00","44926.9652777778","0.6","81.7"
"2022-12-31 23:00:00","44926.9583333333","0.6","81.7"
"2022-12-31 22:50:00","44926.9513888889","0.6","81.9"
"2022-12-31 22:40:00","44926.9444444444","0.7","82.0"
"2022-12-31 22:30:00","44926.9375000000","0.7","82.2"
"2022-12-31 22:20:00","44926.9305555556","0.6","82.3"
"2022-12-31 22:10:00","44926.9236111111","0.6","82.4"
"2022-12-31 22:00:00","44926.9166666667","0.6","82.4"
"2022-12-31 21:50:00","44926.9097222222","0.6","82.3"
"2022-12-31 21:40:00","44926.9027777778","0.6","82.2"
"2022-12-31 21:30:00","44926.8958333333","0.6","82.1"
"2022-12-31 21:20:00","44926.8888888889","0.6","82.1"
"2022-12-31 21:10:00","44926.8819444444","0.6","82.1"
"2022-12-31 21:00:00","44926.8750000000","0.6","81.9"
"2022-12-31 20:50:00","44926.8680555556","0.6","81.7"
"2022-12-31 20:40:00","44926.8611111111","0.6","81.6"
"2022-12-31 20:30:00","44926.8541666667","0.7","81.7"
"2022-12-31 20:20:00","44926.8472222222","0.7","81.5"
"2022-12-31 20:10:00","44926.8402777778","0.7","81.5"
"2022-12-31 20:00:00","44926.8333333333","0.7","81.4"
"2022-12-31 19:50:00","44926.8263888889","0.7","81.0"
"2022-12-31 19:40:00","44926.8194444444","0.8","81.2"
"2022-12-31 19:30:00","44926.8125000000","0.8","81.4"
"2022-12-31 19:20:00","44926.8055555556","0.8","81.3"
"2022-12-31 19:10:00","44926.7986111111","0.8","81.3"
"2022-12-31 19:00:00","44926.7916666667","0.8","80.9"
"2022-12-31 18:50:00","44926.7847222222","0.8","80.5"
"2022-12-31 18:40:00","44926.7777777778","0.8","80.3"
"2022-12-31 18:30:00","44926.7708333333","0.9","80.1"
"2022-12-31 18:20:00","44926.7638888889","0.9","79.9"
"2022-12-31 18:10:00","44926.7569444444","1.0","79.6"
"2022-12-31 18:00:00","44926.7500000000","1.1","79.3"
"2022-12-31 17:50:00","44926.7430555556","1.1","79.0"
"2022-12-31 17:40:00","44926.7361111111","1.2","78.6"
"2022-12-31 17:30:00","44926.7291666667","1.3","78.6"
"2022-12-31 17:20:00","44926.7222222222","1.3","78.7"
"2022-12-31 17:10:00","44926.7152777778","1.4","78.6"
"2022-12-31 17:00:00","44926.7083333333","1.5","78.2"
"2022-12-31 16:50:00","44926.7013888889","1.6","77.6"
"2022-12-31 16:40:00","44926.6944444444","1.7","77.2"
"2022-12-31 16:30:00","44926.6875000000","1.8","77.1"
"2022-12-31 16:20:00","44926.6805555556","1.9","77.0"
"2022-12-31 16:10:00","44926.6736111111","2.1","76.4"
"2022-12-31 16:00:00","44926.6666666667","2.2","75.8"
"2022-12-31 15:50:00","44926.6597222222","2.4","76.0"
"2022-12-31 15:40:00","44926.6527777778","2.5","76.1"
"2022-12-31 15:30:00","44926.6458333333","2.7","75.8"
"2022-12-31 15:20:00","44926.6388888889","2.8","75.4"
"2022-12-31 15:10:00","44926.6319444444","2.9","75.1"
"2022-12-31 15:00:00","44926.6250000000","3.0","74.8"
"2022-12-31 14:50:00","44926.6180555556","3.1","75.4"
"2022-12-31 14:40:00","44926.6111111111","3.1","75.2"
"2022-12-31 14:30:00","44926.6041666667","3.1","75.3"
"2022-12-31 14:20:00","44926.5972222222","3.1","75.8"
"2022-12-31 14:10:00","44926.5902777778","3.0","76.1"
"2022-12-31 14:00:00","44926.5833333333","2.9","75.9"
"2022-12-31 13:50:00","44926.5763888889","2.9","75.8"
"2022-12-31 13:40:00","44926.5694444444","2.9","75.8"
"2022-12-31 13:30:00","44926.5625000000","2.9","75.9"
"2022-12-31 13:20:00","44926.5555555556","2.9","75.4"
"2022-12-31 13:10:00","44926.5486111111","3.0","75.0"
"2022-12-31 13:00:00","44926.5416666667","3.0","75.2"
"2022-12-31 12:50:00","44926.5347222222","3.1","75.3"
"2022-12-31 12:40:00","44926.5277777778","3.1","75.5"
"2022-12-31 12:30:00","44926.5208333333","3.0","75.5"
"2022-12-31 12:20:00","44926.5138888889","3.0","75.4"
"2022-12-31 12:10:00","44926.5069444444","2.9","75.5"
"2022-12-31 12:00:00","44926.5000000000","2.8","75.9"
"2022-12-31 11:50:00","44926.4930555556","2.7","76.4"
"2022-12-31 11:40:00","44926.4861111111","2.7","76.2"
"2022-12-31 11:30:00","44926.4791666667","2.6","75.9"
"2022-12-31 11:20:00","44926.4722222222","2.6","75.8"
"2022-12-31 11:10:00","44926.4652777778","2.6","76.3"
"2022-12-31 11:00:00","44926.4583333333","2.4","77.3"
"2022-12-31 10:50:00","44926.4513888889","2.1","78.5"
"2022-12-31 10:40:00","44926.4444444444","1.9","79.0"
"2022-12-31 10:30:00","44926.4375000000","1.8","79.1"
"2022-12-31 10:20:00","44926.4305555556","1.7","79.3"
"2022-12-31 10:10:00","44926.4236111111","1.5","79.6"
"2022-12-31 10:00:00","44926.4166666667","1.4","80.2"
"2022-12-31 09:50:00","44926.4097222222","1.3","80.7"
"2022-12-31 09:40:00","44926.4027777778","1.0","81.1"
"2022-12-31 09:30:00","44926.3958333333","0.8","81.1"
"2022-12-31 09:20:00","44926.3888888889","0.6","81.1"
"2022-12-31 09:10:00","44926.3819444444","0.5","81.2"
"2022-12-31 09:00:00","44926.3750000000","0.3","81.6"
"2022-12-31 08:50:00","44926.3680555556","0.2","81.6"
"2022-12-31 08:40:00","44926.3611111111","0.1","81.8"
"2022-12-31 08:30:00","44926.3541666667","0.0","82.0"
"2022-12-31 08:20:00","44926.3472222222","0.0","82.0"
"2022-12-31 08:10:00","44926.3402777778","0.0","81.9"
"2022-12-31 08:00:00","44926.3333333333","-0.1","82.3"
"2022-12-31 07:50:00","44926.3263888889","-0.2","82.3"
"2022-12-31 07:40:00","44926.3194444444","-0.3","81.8"
"2022-12-31 07:30:00","44926.3125000000","-0.3","81.9"
"2022-12-31 07:20:00","44926.3055555556","-0.3","82.0"
"2022-12-31 07:10:00","44926.2986111111","-0.4","82.1"
"2022-12-31 07:00:00","44926.2916666667","-0.4","81.9"
"2022-12-31 06:50:00","44926.2847222222","-0.4","81.4"
"2022-12-31 06:40:00","44926.2777777778","-0.4","81.2"
"2022-12-31 06:30:00","44926.2708333333","-0.3","81.6"
"2022-12-31 06:20:00","44926.2638888889","-0.3","81.7"
"2022-12-31 06:10:00","44926.2569444444","-0.3","81.5"
"2022-12-31 06:00:00","44926.2500000000","-0.3","81.6"
"2022-12-31 05:50:00","44926.2430555556","-0.3","81.9"
"2022-12-31 05:40:00","44926.2361111111","-0.3","81.9"
"2022-12-31 05:30:00","44926.2291666667","-0.3","81.8"
"2022-12-31 05:20:00","44926.2222222222","-0.3","81.8"
"2022-12-31 05:10:00","44926.2152777778","-0.3","81.7"
"2022-12-31 05:00:00","44926.2083333333","-0.3","81.6"
"2022-12-31 04:50:00","44926.2013888889","-0.3","81.6"
"2022-12-31 04:40:00","44926.1944444444","-0.3","81.6"
"2022-12-31 04:30:00","44926.1875000000","-0.2","81.6"
"2022-12-31 04:20:00","44926.1805555556","-0.2","81.4"
"2022-12-31 04:10:00","44926.1736111111","-0.2","81.5"
"2022-12-31 04:00:00","44926.1666666667","-0.2","81.5"
"2022-12-31 03:50:00","44926.1597222222","-0.2","81.5"
"2022-12-31 03:40:00","44926.1527777778","-0.2","81.6"
"2022-12-31 03:30:00","44926.1458333333","-0.2","81.7"
"2022-12-31 03:20:00","44926.1388888889","-0.2","81.8"
"2022-12-31 03:10:00","44926.1319444444","-0.2","81.8"
"2022-12-31 03:00:00","44926.1250000000","-0.2","81.7"
"2022-12-31 02:50:00","44926.1180555556","-0.2","81.6"
"2022-12-31 02:40:00","44926.1111111111","-0.2","81.8"
"2022-12-31 02:30:00","44926.1041666667","-0.2","81.7"
"2022-12-31 02:20:00","44926.0972222222","-0.2","81.5"
"2022-12-31 02:10:00","44926.0902777778","-0.2","81.5"
"2022-12-31 02:00:00","44926.0833333333","-0.1","81.5"
"2022-12-31 01:50:00","44926.0763888889","-0.1","81.5"
"2022-12-31 01:40:00","44926.0694444444","-0.1","81.6"
"2022-12-31 01:30:00","44926.0625000000","-0.1","81.6"
"2022-12-31 01:20:00","44926.0555555556","-0.1","81.5"
"2022-12-31 01:10:00","44926.0486111111","-0.1","81.6"
"2022-12-31 01:00:00","44926.0416666667","-0.1","81.7"
"2022-12-31 00:50:00","44926.0347222222","-0.1","81.7"
"2022-12-31 00:40:00","44926.0277777778","-0.1","81.7"
"2022-12-31 00:30:00","44926.0208333333","-0.1","81.7"
"2022-12-31 00:20:00","44926.0138888889","-0.1","81.7"
"2022-12-31 00:10:00","44926.0069444444","-0.1","81.7"
"2022-12-31 00:00:00","44926.0000000000","-0.1","81.5"
"2022-12-30 23:50:00","44925.9930555556","-0.1","81.4"
"2022-12-30 23:40:00","44925.9861111111","-0.1","81.4"
"2022-12-30 23:30:00","44925.9791666667","-0.1","81.4"
"2022-12-30 23:20:00","44925.9722222222","-0.1","81.3"
"2022-12-30 23:10:00","44925.9652777778","-0.1","81.1"
"2022-12-30 23:00:00","44925.9583333333","-0.1","81.2"
"2022-12-30 22:50:00","44925.9513888889","0.0","81.0"
"2022-12-30 22:40:00","44925.9444444444","0.0","80.9"
"2022-12-30 22:30:00","44925.9375000000","0.0","80.9"
"2022-12-30 22:20:00","44925.9305555556","0.0","80.9"
"2022-12-30 22:10:00","44925.9236111111","0.0","80.8"
"2022-12-30 22:00:00","44925.9166666667","0.0","80.7"
"2022-12-30 21:50:00","44925.9097222222","0.0","80.6"
"2022-12-30 21:40:00","44925.9027777778","0.0","80.6"
"2022-12-30 21:30:00","44925.8958333333","0.0","80.6"
"2022-12-30 21:20:00","44925.8888888889","0.0","80.6"
"2022-12-30 21:10:00","44925.8819444444","0.0","80.8"
"2022-12-30 21:00:00","44925.8750000000","0.0","80.7"
"2022-12-30 20:50:00","44925.8680555556","0.0","81.0"
"2022-12-30 20:40:00","44925.8611111111","0.0","81.1"
"2022-12-30 20:30:00","44925.8541666667","0.0","81.0"
"2022-12-30 20:20:00","44925.8472222222","0.0","80.9"
"2022-12-30 20:10:00","44925.8402777778","0.0","80.9"
"2022-12-30 20:00:00","44925.8333333333","0.0","80.8"
"2022-12-30 19:50:00","44925.8263888889","0.0","80.6"
"2022-12-30 19:40:00","44925.8194444444","0.0","80.6"
"2022-12-30 19:30:00","44925.8125000000","0.1","80.5"
"2022-12-30 19:20:00","44925.8055555556","0.1","80.3"
"2022-12-30 19:10:00","44925.7986111111","0.1","80.3"
"2022-12-30 19:00:00","44925.7916666667","0.1","80.3"
"2022-12-30 18:50:00","44925.7847222222","0.1","80.2"
"2022-12-30 18:40:00","44925.7777777778","0.1","80.1"
"2022-12-30 18:30:00","44925.7708333333","0.1","79.9"
"2022-12-30 18:20:00","44925.7638888889","0.1","79.8"
"2022-12-30 18:10:00","44925.7569444444","0.1","79.9"
"2022-12-30 18:00:00","44925.7500000000","0.1","79.7"
"2022-12-30 17:50:00","44925.7430555556","0.1","80.0"
"2022-12-30 17:40:00","44925.7361111111","0.1","79.9"
"2022-12-30 17:30:00","44925.7291666667","0.1","79.6"
"2022-12-30 17:20:00","44925.7222222222","0.1","79.7"
"2022-12-30 17:10:00","44925.7152777778","0.1","79.6"
"2022-12-30 17:00:00","44925.7083333333","0.1","79.7"
"2022-12-30 16:50:00","44925.7013888889","0.1","79.6"
"2022-12-30 16:40:00","44925.6944444444","0.1","79.2"
"2022-12-30 16:30:00","44925.6875000000","0.2","78.5"
"2022-12-30 16:20:00","44925.6805555556","0.2","78.2"
"2022-12-30 16:10:00","44925.6736111111","0.3","78.2"
"2022-12-30 16:00:00","44925.6666666667","0.4","78.3"
"2022-12-30 15:50:00","44925.6597222222","0.4","78.0"
"2022-12-30 15:40:00","44925.6527777778","0.5","77.7"
"2022-12-30 15:30:00","44925.6458333333","0.6","77.6"
"2022-12-30 15:20:00","44925.6388888889","0.6","77.8"
"2022-12-30 15:10:00","44925.6319444444","0.7","77.6"
"2022-12-30 15:00:00","44925.6250000000","0.7","77.2"
"2022-12-30 14:50:00","44925.6180555556","0.8","77.1"
"2022-12-30 14:40:00","44925.6111111111","0.9","76.1"
"2022-12-30 14:30:00","44925.6041666667","1.0","75.6"
"2022-12-30 14:20:00","44925.5972222222","1.1","76.5"
"2022-12-30 14:10:00","44925.5902777778","1.1","76.3"
"2022-12-30 14:00:00","44925.5833333333","1.2","76.5"
"2022-12-30 13:50:00","44925.5763888889","1.3","76.9"
"2022-12-30 13:40:00","44925.5694444444","1.3","77.2"
"2022-12-30 13:30:00","44925.5625000000","1.2","77.5"
"2022-12-30 13:20:00","44925.5555555556","1.1","77.5"
"2022-12-30 13:10:00","44925.5486111111","1.1","77.9"
"2022-12-30 13:00:00","44925.5416666667","1.0","77.7"
"2022-12-30 12:50:00","44925.5347222222","1.0","77.3"
"2022-12-30 12:40:00","44925.5277777778","1.0","77.1"
"2022-12-30 12:30:00","44925.5208333333","0.9","76.9"
"2022-12-30 12:20:00","44925.5138888889","1.0","76.5"
"2022-12-30 12:10:00","44925.5069444444","1.0","76.3"
"2022-12-30 12:00:00","44925.5000000000","1.0","75.8"
"2022-12-30 11:50:00","44925.4930555556","1.0","75.3"
"2022-12-30 11:40:00","44925.4861111111","0.9","75.3"
"2022-12-30 11:30:00","44925.4791666667","0.9","75.2"
"2022-12-30 11:20:00","44925.4722222222","0.9","74.9"
"2022-12-30 11:10:00","44925.4652777778","0.9","74.8"
"2022-12-30 11:00:00","44925.4583333333","0.9","74.1"
"2022-12-30 10:50:00","44925.4513888889","0.9","74.1"
"2022-12-30 10:40:00","44925.4444444444","0.9","74.4"
"2022-12-30 10:30:00","44925.4375000000","1.0","74.8"
"2022-12-30 10:20:00","44925.4305555556","1.0","75.8"
"2022-12-30 10:10:00","44925.4236111111","1.0","77.8"
"2022-12-30 10:00:00","44925.4166666667","0.7","78.3"
"2022-12-30 09:50:00","44925.4097222222","0.4","78.2"
"2022-12-30 09:40:00","44925.4027777778","0.3","78.0"
"2022-12-30 09:30:00","44925.3958333333","0.1","78.0"
"2022-12-30 09:20:00","44925.3888888889","0.0","78.6"
"2022-12-30 09:10:00","44925.3819444444","-0.1","78.8"
"2022-12-30 09:00:00","44925.3750000000","-0.2","79.2"
"2022-12-30 08:50:00","44925.3680555556","-0.4","79.9"
"2022-12-30 08:40:00","44925.3611111111","-0.6","80.6"
"2022-12-30 08:30:00","44925.3541666667","-0.9","80.8"
"2022-12-30 08:20:00","44925.3472222222","-1.2","81.0"
"2022-12-30 08:10:00","44925.3402777778","-1.3","81.1"
"2022-12-30 08:00:00","44925.3333333333","-1.4","81.2"
"2022-12-30 07:50:00","44925.3263888889","-1.4","81.8"
"2022-12-30 07:40:00","44925.3194444444","-1.6","81.9"
"2022-12-30 07:30:00","44925.3125000000","-1.7","81.9"
"2022-12-30 07:20:00","44925.3055555556","-1.8","81.8"
"2022-12-30 07:10:00","44925.2986111111","-1.8","81.8"
"2022-12-30 07:00:00","44925.2916666667","-1.8","81.4"
"2022-12-30 06:50:00","44925.2847222222","-1.9","80.6"
"2022-12-30 06:40:00","44925.2777777778","-1.8","80.3"
"2022-12-30 06:30:00","44925.2708333333","-1.8","80.1"
"2022-12-30 06:20:00","44925.2638888889","-1.7","80.5"
"2022-12-30 06:10:00","44925.2569444444","-1.6","81.1"
"2022-12-30 06:00:00","44925.2500000000","-1.5","80.8"
"2022-12-30 05:50:00","44925.2430555556","-1.5","80.8"
"2022-12-30 05:40:00","44925.2361111111","-1.4","81.1"
"2022-12-30 05:30:00","44925.2291666667","-1.4","81.6"
"2022-12-30 05:20:00","44925.2222222222","-1.3","81.8"
"2022-12-30 05:10:00","44925.2152777778","-1.3","81.9"
"2022-12-30 05:00:00","44925.2083333333","-1.3","82.2"
"2022-12-30 04:50:00","44925.2013888889","-1.2","82.0"
"2022-12-30 04:40:00","44925.1944444444","-1.1","82.0"
"2022-12-30 04:30:00","44925.1875000000","-1.1","82.3"
"2022-12-30 04:20:00","44925.1805555556","-1.0","82.1"
"2022-12-30 04:10:00","44925.1736111111","-1.0","82.0"
"2022-12-30 04:00:00","44925.1666666667","-1.0","82.1"
"2022-12-30 03:50:00","44925.1597222222","-0.9","82.2"
"2022-12-30 03:40:00","44925.1527777778","-0.9","82.2"
"2022-12-30 03:30:00","44925.1458333333","-1.0","82.3"
"2022-12-30 03:20:00","44925.1388888889","-1.0","82.2"
"2022-12-30 03:10:00","44925.1319444444","-1.0","82.2"
"2022-12-30 03:00:00","44925.1250000000","-1.1","82.4"
"2022-12-30 02:50:00","44925.1180555556","-1.1","82.4"
"2022-12-30 02:40:00","44925.1111111111","-1.1","82.3"
"2022-12-30 02:30:00","44925.1041666667","-1.0","82.1"
"2022-12-30 02:20:00","44925.0972222222","-1.0","82.3"
"2022-12-30 02:10:00","44925.0902777778","-1.0","82.4"
"2022-12-30 02:00:00","44925.0833333333","-1.0","82.5"
"2022-12-30 01:50:00","44925.0763888889","-1.0","82.4"
"2022-12-30 01:40:00","44925.0694444444","-1.0","82.5"
"2022-12-30 01:30:00","44925.0625000000","-0.9","82.4"
"2022-12-30 01:20:00","44925.0555555556","-0.9","82.3"
"2022-12-30 01:10:00","44925.0486111111","-0.9","82.3"
"2022-12-30 01:00:00","44925.0416666667","-0.9","82.3"
"2022-12-30 00:50:00","44925.0347222222","-0.9","82.3"
"2022-12-30 00:40:00","44925.0277777778","-0.9","82.2"
"2022-12-30 00:30:00","44925.0208333333","-0.9","82.0"
"2022-12-30 00:20:00","44925.0138888889","-0.9","82.0"
"2022-12-30 00:10:00","44925.0069444444","-0.8","82.5"
"2022-12-30 00:00:00","44925.0000000000","-0.8","82.8"
"2022-12-29 23:50:00","44924.9930555556","-0.8","82.7"
"2022-12-29 23:40:00","44924.9861111111","-0.8","82.6"
"2022-12-29 23:30:00","44924.9791666667","-0.8","82.5"
"2022-12-29 23:20:00","44924.9722222222","-0.7","82.3"
"2022-12-29 23:10:00","44924.9652777778","-0.7","82.4"
"2022-12-29 23:00:00","44924.9583333333","-0.7","82.1"
"2022-12-29 22:50:00","44924.9513888889","-0.7","82.1"
"2022-12-29 22:40:00","44924.9444444444","-0.6","82.1"
"2022-12-29 22:30:00","44924.9375000000","-0.6","82.4"
"2022-12-29 22:20:00","44924.9305555556","-0.6","82.2"
"2022-12-29 22:10:00","44924.9236111111","-0.5","82.2"
"2022-12-29 22:00:00","44924.9166666667","-0.5","82.7"
"2022-12-29 21:50:00","44924.9097222222","-0.5","83.0"
"2022-12-29 21:40:00","44924.9027777778","-0.4","83.1"
"2022-12-29 21:30:00","44924.8958333333","-0.4","83.1"
"2022-12-29 21:20:00","44924.8888888889","-0.4","82.9"
"2022-12-29 21:10:00","44924.8819444444","-0.3","82.9"
"2022-12-29 21:00:00","44924.8750000000","-0.3","83.1"
"2022-12-29 20:50:00","44924.8680555556","-0.3","83.1"
"2022-12-29 20:40:00","44924.8611111111","-0.3","82.9"
"2022-12-29 20:30:00","44924.8541666667","-0.3","82.7"
"2022-12-29 20:20:00","44924.8472222222","-0.3","82.4"
"2022-12-29 20:10:00","44924.8402777778","-0.2","82.2"
"2022-12-29 20:00:00","44924.8333333333","-0.2","82.0"
"2022-12-29 19:50:00","44924.8263888889","-0.2","81.7"
"2022-12-29 19:40:00","44924.8194444444","-0.2","82.1"
"2022-12-29 19:30:00","44924.8125000000","-0.2","82.4"
"2022-12-29 19:20:00","44924.8055555556","-0.2","82.3"
"2022-12-29 19:10:00","44924.7986111111","-0.1","82.0"
"2022-12-29 19:00:00","44924.7916666667","-0.1","81.8"
"2022-12-29 18:50:00","44924.7847222222","-0.1","81.8"
"2022-12-29 18:40:00","44924.7777777778","-0.1","82.5"
"2022-12-29 18:30:00","44924.7708333333","-0.1","82.6"
"2022-12-29 18:20:00","44924.7638888889","-0.1","82.2"
"2022-12-29 18:10:00","44924.7569444444","0.0","82.1"
"2022-12-29 18:00:00","44924.7500000000","0.0","82.6"
"2022-12-29 17:50:00","44924.7430555556","0.0","82.6"
"2022-12-29 17:40:00","44924.7361111111","0.0","82.6"
"2022-12-29 17:30:00","44924.7291666667","0.0","82.7"
"2022-12-29 17:20:00","44924.7222222222","0.0","82.7"
"2022-12-29 17:10:00","44924.7152777778","0.0","82.7"
"2022-12-29 17:00:00","44924.7083333333","0.1","82.6"
"2022-12-29 16:50:00","44924.7013888889","0.1","82.3"
"2022-12-29 16:40:00","44924.6944444444","0.2","82.3"
"2022-12-29 16:30:00","44924.6875000000","0.2","82.9"
"2022-12-29 16:20:00","44924.6805555556","0.3","82.9"
"2022-12-29 16:10:00","44924.6736111111","0.4","82.8"
"2022-12-29 16:00:00","44924.6666666667","0.4","82.6"
"2022-12-29 15:50:00","44924.6597222222","0.5","82.1"
"2022-12-29 15:40:00","44924.6527777778","0.6","82.0"
"2022-12-29 15:30:00","44924.6458333333","0.6","82.2"
"2022-12-29 15:20:00","44924.6388888889","0.7","82.2"
"2022-12-29 15:10:00","44924.6319444444","0.7","82.3"
"2022-12-29 15:00:00","44924.6250000000","0.6","82.5"
"2022-12-29 14:50:00","44924.6180555556","0.6","82.5"
"2022-12-29 14:40:00","44924.6111111111","0.6","82.7"
"2022-12-29 14:30:00","44924.6041666667","0.6","82.8"
"2022-12-29 14:20:00","44924.5972222222","0.6","82.7"
"2022-12-29 14:10:00","44924.5902777778","0.6","82.8"
"2022-12-29 14:00:00","44924.5833333333","0.6","82.7"
"2022-12-29 13:50:00","44924.5763888889","0.6","82.8"
"2022-12-29 13:40:00","44924.5694444444","0.7","82.3"
"2022-12-29 13:30:00","44924.5625000000","0.8","82.5"
"2022-12-29 13:20:00","44924.5555555556","0.8","83.1"
"2022-12-29 13:10:00","44924.5486111111","0.6","82.8"
"2022-12-29 13:00:00","44924.5416666667","0.7","82.3"
"2022-12-29 12:50:00","44924.5347222222","0.8","81.7"
"2022-12-29 12:40:00","44924.5277777778","1.0","80.9"
"2022-12-29 12:30:00","44924.5208333333","1.0","80.6"
"2022-12-29 12:20:00","44924.5138888889","1.0","81.0"
"2022-12-29 12:10:00","44924.5069444444","1.0","81.2"
"2022-12-29 12:00:00","44924.5000000000","1.2","80.9"
"2022-12-29 11:50:00","44924.4930555556","1.4","80.7"
"2022-12-29 11:40:00","44924.4861111111","1.5","80.6"
"2022-12-29 11:30:00","44924.4791666667","1.4","81.2"
"2022-12-29 11:20:00","44924.4722222222","1.3","81.2"
"2022-12-29 11:10:00","44924.4652777778","1.3","80.8"
"2022-12-29 11:00:00","44924.4583333333","1.3","80.4"
"2022-12-29 10:50:00","44924.4513888889","1.4","80.1"
"2022-12-29 10:40:00","44924.4444444444","1.4","80.6"
"2022-12-29 10:30:00","44924.4375000000","1.2","81.2"
"2022-12-29 10:20:00","44924.4305555556","1.1","81.6"
"2022-12-29 10:10:00","44924.4236111111","1.1","81.4"
"2022-12-29 10:00:00","44924.4166666667","1.2","81.1"
"2022-12-29 09:50:00","44924.4097222222","1.3","80.7"
"2022-12-29 09:40:00","44924.4027777778","1.4","81.3"
"2022-12-29 09:30:00","44924.3958333333","1.3","82.2"
"2022-12-29 09:20:00","44924.3888888889","1.2","82.7"
"2022-12-29 09:10:00","44924.3819444444","1.0","83.0"
"2022-12-29 09:00:00","44924.3750000000","0.9","83.2"
"2022-12-29 08:50:00","44924.3680555556","0.9","83.4"
"2022-12-29 08:40:00","44924.3611111111","0.8","83.5"
"2022-12-29 08:30:00","44924.3541666667","0.8","83.7"
"2022-12-29 08:20:00","44924.3472222222","0.8","83.8"
"2022-12-29 08:10:00","44924.3402777778","0.7","83.8"
"2022-12-29 08:00:00","44924.3333333333","0.7","83.9"
"2022-12-29 07:50:00","44924.3263888889","0.6","84.0"
"2022-12-29 07:40:00","44924.3194444444","0.6","84.0"
"2022-12-29 07:30:00","44924.3125000000","0.6","84.0"
"2022-12-29 07:20:00","44924.3055555556","0.6","84.0"
"2022-12-29 07:10:00","44924.2986111111","0.6","84.0"
"2022-12-29 07:00:00","44924.2916666667","0.6","84.1"
"2022-12-29 06:50:00","44924.2847222222","0.5","84.1"
"2022-12-29 06:40:00","44924.2777777778","0.5","84.2"
"2022-12-29 06:30:00","44924.2708333333","0.5","84.1"
"2022-12-29 06:20:00","44924.2638888889","0.5","83.9"
"2022-12-29 06:10:00","44924.2569444444","0.5","83.8"
"2022-12-29 06:00:00","44924.2500000000","0.6","83.8"
"2022-12-29 05:50:00","44924.2430555556","0.6","83.8"
"2022-12-29 05:40:00","44924.2361111111","0.6","83.6"
"2022-12-29 05:30:00","44924.2291666667","0.6","83.4"
"2022-12-29 05:20:00","44924.2222222222","0.7","83.4"
"2022-12-29 05:10:00","44924.2152777778","0.7","83.3"
"2022-12-29 05:00:00","44924.2083333333","0.7","83.1"
"2022-12-29 04:50:00","44924.2013888889","0.7","82.7"
"2022-12-29 04:40:00","44924.1944444444","0.8","82.3"
"2022-12-29 04:30:00","44924.1875000000","0.9","82.0"
"2022-12-29 04:20:00","44924.1805555556","0.9","81.5"
"2022-12-29 04:10:00","44924.1736111111","1.0","81.2"
"2022-12-29 04:00:00","44924.1666666667","1.1","80.8"
"2022-12-29 03:50:00","44924.1597222222","0.9","81.8"
"2022-12-29 03:40:00","44924.1527777778","0.9","82.1"
"2022-12-29 03:30:00","44924.1458333333","0.9","81.8"
"2022-12-29 03:20:00","44924.1388888889","1.0","81.4"
"2022-12-29 03:10:00","44924.1319444444","1.0","80.9"
"2022-12-29 03:00:00","44924.1250000000","1.1","80.3"
"2022-12-29 02:50:00","44924.1180555556","1.3","79.8"
"2022-12-29 02:40:00","44924.1111111111","1.4","79.0"
"2022-12-29 02:30:00","44924.1041666667","1.7","77.9"
"2022-12-29 02:20:00","44924.0972222222","1.9","77.2"
"2022-12-29 02:10:00","44924.0902777778","2.2","76.7"
"2022-12-29 02:00:00","44924.0833333333","2.4","74.7"
"2022-12-29 01:50:00","44924.0763888889","2.4","73.9"
"2022-12-29 01:40:00","44924.0694444444","2.4","74.1"
"2022-12-29 01:30:00","44924.0625000000","2.3","76.3"
"2022-12-29 01:20:00","44924.0555555556","2.4","77.0"
"2022-12-29 01:10:00","44924.0486111111","2.6","76.3"
"2022-12-29 01:00:00","44924.0416666667","2.9","74.6"
"2022-12-29 00:50:00","44924.0347222222","3.1","72.3"
"2022-12-29 00:40:00","44924.0277777778","3.2","68.2"
"2022-12-29 00:30:00","44924.0208333333","3.0","70.1"
"2022-12-29 00:20:00","44924.0138888889","2.6","73.2"
"2022-12-29 00:10:00","44924.0069444444","2.4","76.4"